Location: Nitra
(0.0000°N, 18.0833°E)
Time: 05:37:11
(UTC+01:00)

Cosmos-2242 - Pass Details

Date: 24 January 2021
Orbit: 591 x 616 km, 82.5° (Epoch: 04 March)

Event Time Altitude Azimuth Distance (km) Brightness Sun altitude
Exits shadow 19:03:28 - 6° (N) 2,773 6.1 -15.0°
Reaches altitude 10° 19:05:33 10° 12° (NNE) 1,942 5.3 -15.5°
Maximum altitude 19:09:42 48° 87° (E) 799 3.2 -16.5°
Drops below altitude 10° 19:13:53 10° 161° (SSE) 1,965 5.6 -17.5°
Sets 19:16:10 0° 166° (SSE) 2,875 6.6 -18.0°
